GEFSNE_500_meanwind_000.txt.gz
Wind_Speed
28 30 31 33 36 36 37 38 37 35 34 34 34 34 35 36 37 37 38 36 36 32 31 31 29 26 31 38 42 45 49 48 46 44 40 37 36 37
25 27 30 31 34 34 34 35 35 33 32 33 33 35 36 36 35 33 31 28 27 28 31 28 24 25 24 28 37 42 43 43 42 42 40 40 42 43
24 25 27 28 30 31 32 32 33 34 35 34 35 34 33 35 36 33 29 27 25 25 23 21 24 25 23 20 25 37 41 43 43 42 42 44 45 47
23 24 24 24 26 29 30 30 31 31 31 32 35 34 34 35 34 30 29 26 25 26 23 22 24 24 25 28 30 32 35 39 38 39 43 43 41 39
26 24 22 21 22 23 24 25 27 29 30 31 35 34 33 29 22 26 28 25 23 24 23 23 24 24 22 21 20 25 32 36 35 38 40 40 42 42
26 24 21 18 15 14 15 19 25 30 30 28 32 32 32 29 25 25 25 23 22 23 22 22 20 18 16 16 19 21 24 27 30 32 34 37 39 40
25 25 21 14 10 13 14 16 22 27 25 30 32 26 24 25 24 22 21 21 19 18 18 18 17 17 18 19 20 21 23 25 27 30 33 35 37 41
27 24 22 16 17 14 16 18 21 25 22 25 27 26 28 27 23 20 19 18 17 17 16 16 16 17 19 21 22 23 25 27 29 31 33 35 36 39
27 23 22 18 17 14 14 17 21 24 29 28 25 23 25 24 19 18 18 16 15 14 14 15 15 15 16 17 19 21 24 26 28 31 33 35 37 39
28 23 20 18 15 16 14 16 21 25 25 25 24 18 16 15 18 18 16 15 14 13 12 12 12 12 14 16 19 21 23 25 28 30 33 36 39 42
30 26 20 18 16 17 18 18 17 18 23 25 24 22 19 19 18 16 14 13 12 11 10 11 11 11 12 14 17 19 21 23 26 29 31 34 37 41
31 29 24 21 18 16 16 16 18 20 20 19 21 23 21 19 17 14 13 12 10 10 9 9 9 10 11 14 15 18 20 23 26 28 32 35 39 43
32 31 28 25 21 19 19 19 19 23 25 22 20 19 19 18 16 13 12 10 9 9 9 9 9 9 11 12 15 17 19 22 26 29 33 37 41 44
33 31 29 26 23 23 24 24 25 26 26 24 21 20 18 15 14 14 13 9 8 9 9 11 10 10 11 14 16 18 21 24 27 31 34 37 38 40
33 32 28 25 25 26 26 27 29 29 26 24 21 19 15 15 15 14 12 10 11 13 15 16 14 13 13 15 16 19 22 26 30 33 34 35 36 36
33 31 25 24 25 27 28 26 24 22 23 21 19 17 15 15 14 13 13 14 15 16 18 17 15 14 14 14 16 19 21 25 28 30 31 32 32 33
33 29 25 25 27 29 27 23 21 21 22 21 18 15 14 14 14 15 16 17 17 17 17 17 16 16 15 14 16 20 23 23 24 24 27 29 31 31
32 28 27 27 26 27 24 22 22 22 21 19 17 15 15 16 16 17 17 18 18 19 19 19 20 20 20 19 20 23 24 23 22 21 23 26 28 28
32 31 29 29 28 27 25 24 24 21 18 17 18 18 18 19 18 18 19 20 20 20 19 19 19 21 24 24 23 23 23 23 23 23 23 25 27 28
34 33 29 30 30 30 28 26 24 20 17 18 20 21 20 20 19 19 21 23 23 22 20 20 21 23 25 25 24 22 22 23 23 25 26 27 29 32
33 31 30 30 29 29 29 27 24 20 18 18 19 20 20 20 20 21 23 25 26 26 26 26 27 30 31 28 24 20 20 22 24 26 28 29 30 33
33 32 30 28 28 28 27 25 22 18 17 18 19 20 21 21 22 23 24 26 26 26 26 26 27 27 26 25 24 22 23 24 25 27 28 30 31 33
33 31 29 28 28 27 25 22 19 18 17 18 19 20 20 20 21 23 24 24 24 24 24 24 24 23 24 25 26 26 27 29 30 30 30 29 31 34

GEFSNE_500_meanwind_006.txt.gz
Wind_Speed
27 26 24 23 23 23 23 25 26 28 31 32 31 30 30 29 28 26 26 26 28 31 32 33 35 35 34 33 32 31 31 31 32 33 34 34 38 41
28 27 24 22 22 22 22 22 24 26 29 32 31 30 29 29 28 28 26 26 28 30 32 34 34 34 34 34 34 33 32 32 33 33 32 33 36 38
31 29 26 23 21 20 21 21 21 23 25 28 30 30 30 29 28 28 28 29 30 31 31 31 30 30 29 29 30 30 29 29 29 29 29 29 34 40
30 30 27 24 21 20 20 20 20 21 23 25 28 29 30 30 30 31 31 31 30 28 26 25 24 23 23 23 23 23 24 25 25 25 26 27 30 36
29 29 27 24 22 21 20 20 19 19 21 25 27 30 31 32 32 32 32 31 28 26 25 25 25 24 23 23 21 21 21 22 23 23 22 22 24 29
30 29 27 25 23 22 20 19 18 18 19 23 27 30 32 33 33 32 31 29 28 27 27 26 25 25 23 21 21 20 19 18 18 17 17 17 19 21
32 31 30 27 25 23 21 19 18 18 18 21 24 28 31 32 31 30 30 29 27 25 26 26 24 22 20 18 17 16 16 16 16 16 17 17 18 19
35 33 32 30 27 24 23 21 19 18 19 20 21 22 25 27 28 31 32 29 26 24 24 22 20 18 16 14 15 16 16 17 18 19 19 19 20 21
40 36 33 32 29 26 24 23 20 18 18 19 19 19 20 23 26 28 28 28 25 22 19 17 15 14 13 14 15 16 17 17 17 18 19 20 21 22
44 40 35 32 30 27 25 24 21 17 16 16 17 17 19 22 23 24 25 24 22 19 16 14 13 12 13 14 15 14 14 14 14 16 17 19 20 22
47 42 37 34 31 28 27 25 22 18 15 14 15 16 20 22 22 21 21 21 19 17 15 13 13 12 13 13 12 12 12 12 13 13 14 16 17 19
51 47 42 38 34 31 29 27 24 21 18 16 15 17 20 23 23 21 19 17 16 14 14 13 13 12 11 11 11 11 10 10 11 12 13 15 18 21
54 51 48 43 38 35 32 30 27 23 20 18 17 18 19 20 20 20 19 18 16 15 14 13 12 11 10 10 10 11 11 12 13 15 16 17 20 23
55 55 51 46 42 38 34 33 30 25 21 18 17 16 17 17 18 19 17 16 16 15 15 14 12 10 9 10 11 12 13 16 17 18 19 20 22 24
52 52 51 49 46 41 37 34 32 27 23 19 16 16 18 19 19 17 17 16 16 16 15 13 12 10 10 11 13 15 17 19 20 21 23 24 24 25
51 51 51 50 47 43 38 35 32 28 24 20 18 18 19 19 18 18 17 17 17 16 15 14 12 12 13 14 17 19 21 23 24 25 26 26 27 27
50 51 51 49 44 40 37 33 31 28 25 22 20 20 19 18 18 18 17 17 17 16 14 14 14 14 16 19 21 24 26 27 28 28 29 30 30 30
49 47 46 44 40 37 33 30 29 28 26 24 23 22 21 20 19 18 18 17 16 15 14 14 16 18 20 22 23 25 26 26 27 29 31 32 32 32
47 44 42 39 36 33 31 29 29 28 26 24 23 23 23 21 20 19 18 16 16 15 15 17 18 20 22 23 24 25 26 28 31 32 33 34 34 34
43 41 39 36 33 31 29 29 28 26 24 23 24 23 22 20 20 19 18 17 15 15 17 19 20 21 23 24 26 29 31 32 33 33 33 33 34 35
42 39 37 34 32 30 29 29 28 27 25 24 23 22 21 20 20 19 17 16 16 17 18 20 22 23 25 27 28 29 31 33 33 32 33 33 35 36
38 36 34 33 32 30 30 30 29 28 26 24 22 20 19 19 18 17 16 16 17 18 20 22 24 26 27 28 28 28 28 30 31 31 32 33 34 34
34 34 32 32 31 31 31 31 30 28 25 21 19 18 17 17 16 16 16 17 18 20 21 23 25 25 25 25 26 27 28 28 29 30 30 30 29 29

GEFSNE_500_meanwind_012.txt.gz
Wind_Speed
33 32 31 31 30 29 27 25 23 22 23 22 22 23 24 25 26 27 27 24 21 20 19 19 19 19 21 24 25 26 28 28 27 27 27 27 26 27
36 35 34 33 32 31 30 28 25 23 23 24 22 22 23 25 26 26 23 21 19 20 20 21 22 23 24 26 27 28 29 29 29 27 26 26 26 27
40 38 36 35 34 34 32 30 27 24 22 24 22 21 23 25 26 27 26 23 23 23 23 23 24 25 26 28 29 31 31 31 30 29 28 28 28 30
44 42 40 37 35 34 33 30 28 25 22 22 22 21 22 24 27 29 28 27 26 26 25 25 25 26 27 28 29 30 31 30 30 29 29 30 30 30
48 44 42 39 36 35 33 31 29 26 23 22 22 21 21 23 25 28 29 28 28 27 26 26 26 26 25 25 25 26 27 27 27 26 26 27 28 28
49 46 42 41 39 37 34 31 29 27 24 22 22 20 20 21 23 25 27 27 27 27 26 26 25 24 23 23 23 23 22 21 21 21 22 23 25 26
50 47 43 41 40 38 36 33 30 27 25 23 22 20 18 18 21 23 25 25 26 26 26 25 25 24 23 23 23 22 22 21 21 21 22 22 21 21
52 48 45 43 42 40 38 35 31 27 24 23 22 20 18 17 19 21 22 23 24 24 25 25 25 24 24 23 23 23 22 22 22 21 21 20 19 18
55 50 47 44 43 42 40 37 32 28 24 23 22 19 17 16 16 18 19 21 21 23 24 25 25 24 23 23 23 24 24 23 21 20 19 18 17 17
60 54 50 47 44 43 42 39 35 29 25 23 21 18 16 15 15 17 18 19 20 20 20 21 22 23 22 22 22 22 21 20 19 18 17 17 17 16
62 58 54 51 46 44 43 41 37 32 26 23 20 17 15 15 15 16 17 18 19 19 19 20 20 20 21 21 21 20 19 18 17 16 16 16 15 14
60 59 56 54 49 45 44 42 39 34 28 23 19 16 14 14 14 15 15 15 17 19 19 19 20 20 20 20 19 17 16 15 14 14 13 12 12 12
55 57 56 54 52 47 45 44 42 37 30 24 20 16 14 13 13 14 14 14 16 18 18 19 20 20 20 18 16 15 14 13 12 11 10 11 11 13
50 54 54 52 51 49 46 46 44 39 32 25 20 17 15 14 14 14 14 14 15 16 17 18 19 18 17 16 15 14 13 12 11 11 12 13 15 16
46 52 54 50 49 48 47 46 44 40 33 28 23 19 16 14 14 14 14 14 15 16 17 18 19 18 17 16 15 14 13 12 12 13 15 16 18 20
41 49 54 52 49 48 47 45 43 39 34 29 25 21 17 15 15 15 15 15 16 18 19 19 19 18 18 17 16 14 13 13 15 17 19 21 22 24
33 46 51 53 50 48 46 44 42 38 33 29 26 22 19 17 17 17 17 18 19 20 20 20 20 20 19 18 17 16 16 17 19 21 22 24 26 28
27 40 48 50 50 47 45 44 40 35 32 30 27 24 21 20 20 20 20 20 21 22 22 22 22 21 20 20 19 19 20 21 22 24 25 26 28 30
26 36 46 49 50 47 46 43 39 34 32 30 28 26 23 23 22 23 23 23 24 23 24 24 24 23 22 22 21 22 22 23 24 25 27 28 30 31
28 34 44 47 50 47 44 43 39 36 33 31 28 26 25 25 25 25 25 25 24 24 24 25 25 24 23 22 22 23 24 24 25 27 29 29 29 29
28 32 40 45 47 46 43 40 38 35 34 32 29 28 27 27 27 27 27 26 25 25 25 25 25 24 24 24 24 24 24 25 27 28 28 28 28 28
27 30 37 44 44 42 41 39 37 35 33 32 30 30 29 29 28 28 28 26 25 25 25 25 25 25 25 25 25 25 26 27 27 28 28 28 28 28
27 30 35 42 41 39 38 37 35 34 33 32 32 31 30 30 30 29 28 26 25 25 25 25 25 26 26 25 25 26 27 27 28 28 28 28 28 29

GEFSNE_500_meanwind_018.txt.gz
Wind_Speed
44 43 41 40 38 36 34 32 30 28 27 24 23 23 22 21 20 21 22 22 23 25 26 26 27 27 29 33 35 37 38 39 40 41 42 40 37 34
48 47 46 44 42 40 37 34 32 30 29 27 25 24 23 22 21 21 21 22 23 24 25 26 26 27 27 29 31 32 34 36 36 36 36 35 34 32
53 52 50 49 47 44 41 37 34 32 30 29 27 26 25 23 21 21 21 21 22 23 24 25 26 26 26 25 25 26 27 29 29 29 30 30 31 31
60 57 55 53 51 47 44 41 37 34 32 30 29 27 25 23 22 21 21 21 22 23 24 24 25 25 25 25 24 24 24 24 25 26 28 30 30 31
65 63 60 57 55 52 48 44 40 37 34 32 30 28 26 24 22 21 20 20 21 23 25 25 25 24 24 23 23 22 23 24 25 27 28 28 29 29
70 68 64 61 58 56 52 48 44 40 35 33 31 29 27 24 22 21 20 19 20 22 25 26 26 25 24 23 23 23 23 24 24 24 25 26 27 28
74 71 69 65 62 59 55 52 48 43 38 34 32 30 27 26 24 22 20 19 20 21 24 25 26 26 25 24 23 23 23 22 23 23 24 24 24 25
76 75 73 69 65 61 58 54 50 45 40 37 34 31 28 26 24 22 20 19 20 21 23 25 26 26 26 26 25 24 23 23 22 23 23 22 22 22
72 76 76 72 67 63 59 55 52 47 43 39 35 32 30 27 25 22 20 20 20 22 23 24 25 25 26 26 25 25 24 24 24 24 24 23 22 21
57 67 74 74 69 64 59 56 53 48 44 41 37 34 31 28 25 22 20 20 20 21 22 23 24 24 25 25 25 25 25 25 26 25 25 23 22 21
42 52 62 70 69 65 60 56 52 49 46 42 39 36 32 28 25 22 19 18 19 20 21 22 22 23 24 24 25 25 25 25 25 24 24 23 22 21
34 40 49 59 64 64 60 56 52 49 46 43 39 36 32 29 25 22 19 19 19 20 20 21 21 21 22 22 22 23 23 23 24 24 23 21 20 19
29 32 38 48 56 60 59 55 52 50 46 43 40 37 33 29 26 23 21 20 20 21 21 22 21 20 20 19 19 20 21 21 21 22 20 19 17 16
26 27 32 40 50 56 56 55 52 49 46 43 40 37 34 30 26 24 22 21 21 21 21 21 21 20 18 18 18 18 19 19 18 17 16 16 15 15
24 24 27 36 46 53 54 53 52 48 45 42 39 37 35 31 28 25 23 22 22 22 22 20 19 18 17 17 17 17 17 16 16 16 16 16 15 15
23 22 24 33 43 50 53 52 50 47 45 41 39 38 36 32 29 26 24 23 22 22 21 20 18 17 17 17 17 17 17 17 17 17 16 16 15 15
23 23 24 31 42 49 51 50 49 47 45 43 41 38 36 33 30 27 25 23 22 22 21 19 17 17 17 18 18 19 19 19 18 18 17 16 16 16
22 23 25 31 42 48 50 50 48 46 44 42 41 39 37 34 30 28 26 24 23 22 21 19 18 18 19 20 20 20 21 21 20 19 18 18 18 19
21 22 25 32 43 49 50 51 47 44 42 40 40 39 38 35 32 29 26 25 23 22 22 21 20 20 21 22 22 22 22 22 21 20 20 20 21 23
20 21 25 33 43 51 50 51 48 44 42 41 40 39 38 36 34 31 28 26 25 23 23 22 22 22 22 23 23 23 23 23 23 22 23 23 25 27
19 20 23 32 42 48 50 50 48 45 43 42 40 38 37 36 34 32 29 27 26 25 24 24 23 22 23 23 24 24 25 25 25 25 25 26 28 30
16 17 20 28 35 44 48 50 49 46 44 42 40 38 37 35 34 32 30 28 27 26 25 24 23 23 24 24 25 25 25 26 26 27 28 30 31 33
15 15 17 23 30 41 45 48 46 45 42 40 39 37 35 34 33 31 30 29 28 27 26 25 24 24 24 24 25 25 26 27 28 29 31 32 34 35

GEFSNE_500_meanwind_024.txt.gz
Wind_Speed
48 47 46 45 45 44 43 41 40 39 37 35 32 29 26 24 22 21 20 19 19 20 20 21 23 25 27 28 29 30 31 32 34 35 37 39 39 40
54 52 51 49 49 48 46 45 44 42 40 38 36 32 30 27 25 23 22 21 21 21 22 22 23 24 26 28 29 29 29 30 32 35 36 38 39 39
62 58 56 55 53 51 50 48 47 45 43 41 39 36 33 30 27 25 23 23 23 23 23 23 23 24 26 27 28 29 29 29 29 31 33 34 36 38
70 66 62 59 57 55 53 52 50 49 46 44 42 39 36 33 30 27 25 24 24 24 24 24 24 24 26 27 27 28 28 27 27 27 28 30 33 35
75 74 70 65 61 59 58 55 53 52 50 47 44 41 38 35 32 29 27 26 25 25 25 25 24 24 25 26 26 26 26 26 25 24 24 25 27 29
76 77 77 73 67 62 60 59 57 54 52 50 47 44 41 38 34 32 29 27 26 26 25 25 25 25 26 26 25 25 25 25 25 24 23 22 22 23
77 78 79 79 74 69 62 60 60 58 55 53 50 47 43 40 37 34 31 29 28 26 25 25 25 25 26 26 25 24 24 23 23 22 21 21 21 21
74 76 78 80 79 76 69 63 59 58 57 55 52 49 46 43 39 36 33 30 29 28 27 26 26 25 25 26 25 25 24 22 21 20 19 19 19 19
67 71 75 78 79 78 77 69 62 57 57 56 55 52 48 45 42 38 35 32 30 29 28 27 26 26 26 26 26 25 24 23 22 21 20 20 19 20
59 62 68 73 76 77 77 75 69 61 56 56 54 52 50 48 44 41 37 33 31 29 28 27 26 26 25 26 26 26 25 24 23 22 22 21 21 21
52 54 58 64 71 75 75 74 72 69 61 56 54 53 51 49 46 42 38 35 32 30 28 27 26 26 25 25 25 25 25 25 24 23 23 23 22 22
45 46 50 54 61 68 71 71 72 71 67 61 56 52 51 49 47 43 39 36 33 30 29 27 27 26 25 24 24 24 24 24 24 24 23 23 23 23
39 40 41 45 52 58 63 66 68 69 68 65 59 55 51 49 46 44 40 37 34 31 30 28 27 25 24 24 24 24 24 24 24 24 24 24 23 23
35 36 37 38 41 47 53 58 63 66 66 65 62 57 54 49 45 43 41 37 35 33 31 30 28 26 25 24 25 24 24 24 24 24 24 24 23 23
32 33 32 32 34 38 43 49 55 60 64 65 63 57 54 51 47 44 41 38 36 34 32 30 28 27 26 25 25 25 24 24 24 24 23 23 23 23
29 29 29 28 29 31 35 41 47 53 59 62 61 58 53 51 48 44 41 38 37 35 33 31 29 28 26 25 25 24 24 24 25 24 24 23 22 22
27 27 26 26 26 28 31 35 40 46 53 57 59 57 53 50 48 45 42 40 38 35 34 32 31 29 27 26 25 24 24 24 24 23 23 23 22 21
25 25 25 25 26 27 30 33 36 43 50 55 57 57 53 50 47 45 43 41 38 36 35 34 32 30 28 27 25 24 24 23 23 23 22 22 22 22
23 24 24 24 25 27 29 32 35 41 48 53 54 55 52 49 47 45 43 41 39 37 36 34 33 31 29 28 26 25 24 24 24 24 23 23 23 22
22 23 23 24 25 26 28 31 36 42 48 52 53 53 51 49 47 45 43 41 39 37 35 34 32 30 29 28 26 25 25 25 25 25 24 24 24 24
20 22 22 23 23 25 28 32 38 44 49 52 52 51 49 48 47 44 43 41 40 37 35 33 32 30 29 27 26 25 25 25 25 25 25 25 25 25
18 19 20 21 22 25 28 33 39 47 50 51 52 51 49 47 45 44 43 41 38 36 34 33 31 29 28 27 27 26 25 25 25 25 26 26 27 28
15 16 17 19 21 23 29 35 42 48 50 51 52 50 47 46 45 43 41 39 36 34 33 31 30 28 28 28 27 26 26 25 26 26 27 28 29 30

GEFSNE_500_meanwind_030.txt.gz
Wind_Speed
44 43 42 40 39 40 41 40 39 37 37 36 35 35 33 31 29 26 25 22 19 17 14 13 11 11 10 10 11 12 14 16 18 20 22 24 26 27
48 48 47 44 42 41 41 41 41 40 39 38 37 37 36 34 31 29 27 25 22 19 16 15 13 12 11 11 11 12 13 15 16 18 20 22 24 26
53 52 52 50 47 45 44 43 43 42 42 41 40 38 38 36 34 32 30 27 24 21 19 16 14 14 13 12 12 12 13 14 16 18 19 21 22 24
57 57 57 56 53 51 48 45 45 45 44 43 42 40 40 39 37 35 32 30 27 24 21 18 16 14 14 13 13 13 13 15 16 17 19 20 22 23
62 61 61 61 60 57 54 51 48 47 46 46 44 43 42 41 40 38 35 32 29 26 24 21 18 16 15 14 14 14 14 15 16 17 19 20 22 23
63 63 64 64 64 63 60 57 54 51 48 48 47 46 44 43 42 40 38 35 33 30 26 23 20 18 16 15 15 15 15 15 16 17 18 19 20 22
61 61 65 67 67 67 66 62 60 57 54 51 49 48 47 45 43 42 41 39 36 33 29 26 22 20 18 16 15 15 15 15 16 17 18 18 19 21
59 59 61 66 68 69 69 67 64 61 58 55 52 51 49 47 45 44 43 42 39 36 32 28 25 22 20 18 17 16 16 16 17 17 17 18 19 19
55 57 58 60 64 68 70 70 68 65 62 59 55 52 49 49 48 46 45 44 42 39 35 31 28 25 22 20 19 17 17 17 17 18 18 19 19 20
50 52 54 56 59 63 66 68 68 67 64 61 58 55 52 50 49 48 47 45 44 41 37 34 30 27 24 22 20 19 18 17 18 18 19 19 19 19
42 46 48 50 53 57 60 63 65 65 64 62 61 58 54 51 49 49 47 45 44 42 39 36 33 29 26 24 22 20 19 18 18 19 19 19 20 20
35 40 44 45 47 50 53 56 60 62 62 61 60 61 57 51 48 49 47 45 45 43 40 38 35 32 28 26 23 21 20 19 19 19 20 20 20 21
30 34 38 41 43 45 47 50 54 57 60 61 60 60 58 55 51 48 47 46 44 43 42 40 37 33 30 28 25 22 20 19 19 19 19 19 20 20
25 29 32 35 38 40 42 45 48 52 55 57 59 59 57 54 51 49 46 45 45 43 43 42 38 35 32 30 27 24 21 20 19 19 19 19 19 19
21 24 27 30 33 35 38 41 44 47 50 53 55 56 55 55 55 51 46 44 44 44 43 42 40 36 33 31 28 25 22 20 20 19 19 19 19 20
19 21 24 27 28 30 33 37 40 42 45 48 50 52 53 54 54 52 49 46 43 42 44 43 41 38 34 32 29 26 23 21 20 19 19 19 19 20
17 18 20 23 25 27 29 31 35 37 40 44 47 49 50 51 51 50 49 45 41 40 42 42 41 39 35 32 29 26 24 22 20 20 19 19 19 19
16 17 18 20 22 24 26 27 30 34 36 39 42 45 49 50 50 50 47 42 40 40 40 40 40 38 35 32 28 25 23 22 20 20 20 19 19 19
15 16 17 19 22 23 24 25 27 30 33 36 39 42 46 48 49 49 47 43 40 38 37 37 37 35 33 30 28 26 24 22 21 20 20 20 19 19
13 14 16 18 20 21 22 23 24 27 30 33 37 41 43 45 45 46 46 44 42 40 37 36 35 33 31 30 28 27 25 23 22 21 20 19 18 18
11 12 14 15 18 19 20 21 22 24 27 31 35 39 43 44 44 44 44 43 42 40 37 35 34 33 32 31 29 26 24 23 22 21 20 19 18 18
11 12 13 15 16 17 18 20 21 23 26 30 35 39 43 44 44 44 43 42 41 38 37 37 37 36 33 29 28 27 25 23 22 21 21 20 19 18
10 12 14 15 16 17 18 20 22 23 25 29 33 39 43 45 45 46 45 44 42 40 38 37 36 35 32 30 28 27 25 24 23 22 22 21 21 21

GEFSNE_500_meanwind_036.txt.gz
Wind_Speed
36 36 36 35 35 34 33 31 32 34 35 35 36 37 39 40 40 40 40 38 36 34 31 29 27 26 25 24 23 23 21 21 21 21 21 22 22 23
39 39 39 39 38 37 36 35 34 35 35 36 36 38 41 42 42 42 41 40 37 35 33 30 28 26 25 24 23 22 21 20 20 19 20 20 21 22
42 42 42 43 42 41 39 38 37 35 35 37 37 38 41 43 44 44 43 41 39 37 35 32 30 27 26 24 23 21 20 19 19 19 19 19 20 21
44 45 45 46 46 45 44 42 41 39 37 36 38 39 42 44 46 45 44 43 41 39 37 34 31 29 27 24 23 21 19 18 18 17 17 18 18 19
47 47 48 49 48 49 49 48 46 44 41 39 39 41 43 45 47 47 46 45 43 42 40 37 34 31 28 26 24 22 20 18 17 17 17 17 17 18
48 49 50 51 51 52 53 53 51 49 47 44 42 42 44 46 47 48 47 46 45 44 42 39 36 33 30 28 25 23 21 19 17 16 16 16 16 17
49 50 52 53 54 55 56 57 56 54 52 49 47 44 46 47 48 48 48 48 47 45 44 42 39 36 32 29 26 24 22 20 18 17 16 15 16 16
48 50 52 53 55 57 59 60 60 59 57 55 53 48 47 48 49 50 49 49 48 47 46 44 41 38 35 31 28 25 23 21 19 17 16 15 15 15
46 48 50 52 54 57 60 62 63 63 62 60 58 54 50 50 49 50 50 50 50 50 49 46 44 41 37 33 30 27 24 21 19 18 16 16 16 16
44 45 47 49 52 55 59 63 65 66 65 64 62 60 57 54 51 51 52 52 53 53 51 48 46 43 40 36 32 28 25 23 21 19 17 16 15 15
41 42 44 47 49 52 56 60 65 67 69 68 67 66 62 58 55 54 54 53 53 53 52 49 47 45 42 38 34 31 28 25 22 20 18 17 16 15
36 38 41 43 46 50 53 57 61 66 69 71 70 69 66 63 58 54 53 53 53 52 51 50 49 47 44 41 37 34 30 27 24 22 20 18 17 16
30 31 34 37 41 46 49 53 57 62 66 70 72 71 69 66 62 57 54 53 53 52 52 52 51 50 47 43 40 37 33 29 26 24 22 19 18 17
23 23 25 29 34 40 45 49 53 58 62 66 70 71 70 67 63 60 57 54 53 52 54 55 53 51 49 47 43 40 36 32 29 26 23 21 19 18
15 15 18 22 27 34 39 43 48 52 56 60 64 67 69 68 64 60 58 57 54 51 53 55 55 53 51 49 46 42 38 34 31 28 25 23 21 19
9 9 13 17 23 29 34 39 43 46 50 54 59 63 65 66 64 60 57 56 55 52 52 52 54 53 51 49 47 44 41 37 33 30 27 24 22 20
4 4 8 13 20 26 31 36 40 42 43 48 53 58 61 62 63 61 58 55 54 52 50 49 50 52 52 51 48 45 41 38 34 31 29 26 24 22
2 3 6 11 16 21 26 31 37 40 41 44 49 53 56 58 59 58 57 55 53 52 50 50 50 50 50 50 47 44 41 38 35 32 30 27 25 24
1 3 6 9 13 18 22 27 32 36 40 42 46 49 52 56 58 57 56 54 53 52 50 49 48 46 47 47 45 44 41 39 36 33 31 29 27 25
1 2 5 9 12 16 19 23 28 33 37 40 44 48 51 54 56 57 56 54 52 50 51 48 46 44 45 47 46 45 44 40 37 35 33 30 27 25
3 3 5 7 11 14 18 21 25 31 35 40 43 45 49 53 55 55 56 55 51 49 50 47 44 43 44 48 48 46 43 41 38 35 33 30 28 26
5 6 6 8 10 13 16 20 23 28 32 37 41 44 48 52 53 54 55 54 52 50 48 47 45 44 43 43 44 44 43 41 38 35 32 30 29 28
6 7 8 9 11 13 15 19 22 26 30 35 39 43 46 50 52 53 53 54 53 51 49 48 46 44 43 41 41 42 42 40 38 35 32 31 30 28